Regional Weather Roundup
Issued by NWS

Home | Current Version | Previous Version | Text Only | Print | Product List | Glossary On
Versions: 1 2 3 4 5 6 7 8 9 10 11 12 13 14 15 16 17 18 19 20 21 22 23 24 25 26 27 28 29 30 31 32 33 34 35 36 37 38 39 40 41 42 43 44 45 46 47 48 49 50
000
ASUS44 KEWX 050603
RWRTX
SOUTH TEXAS REGIONAL WEATHER ROUNDUP
NATIONAL WEATHER SERVICE AUSTIN/SAN ANTONIO TX
100 AM CDT SAT SEP 05 2015

NOTE: "FAIR" INDICATED FEW OR NO CLOUDS BELOW 12,000 FEET WITH NO
SIGNIFICANT WEATHER AND/OR OBSTRUCTIONS TO VISIBILITY.

* - THESE STATIONS ARE NOT NWS OR FAA STATIONS...AND ARE NOT SUBJECT
    TO NWS AND FAA QUALITY CONTROL.

TXZ171-172-183>190-050700-
TEXAS HILL COUNTRY AND EDWARDS PLATEAU

CITY           SKY/WX    TMP DP  RH WIND       PRES   REMARKS
JUNCTION       CLEAR     80  68  66 SE3       29.98R
6HR MIN TEMP:  80; 6HR MAX TEMP:  94;

*LLANO         CLEAR     81  70  69 CALM      29.99S
BURNET         CLEAR     79  70  74 S9        29.99R
6HR MIN TEMP:  79; 6HR MAX TEMP:  92;

*HORSESHOE BAY CLEAR     79  72  78 S5        29.96S
6HR MIN TEMP:  79; 6HR MAX TEMP:  93;

*KERRVILLE     MOCLDY    77  73  85 S8        29.99S
6HR MIN TEMP:  76; 6HR MAX TEMP:  92;

*FREDERICKSBRG MOCLDY    76  69  78 S5        29.99S
*ROCKSPRINGS   CLEAR     79  70  73 SE12      30.02S
*BOERNE STAGE  PTCLDY    77  72  83 S9        29.99S
*CASTROVILLE   CLOUDY    80  72  75 SE10G17   29.97R
HONDO          CLOUDY    81  74  79 SE10      29.97R
6HR MIN TEMP:  81; 6HR MAX TEMP:  95;

*UVALDE        CLEAR     81  72  74 SE8       29.94S
DEL RIO        CLEAR     85  70  60 E10G18    29.89R
6HR MIN TEMP:  85; 6HR MAX TEMP:  97;

LAUGHLIN AFB   CLEAR     84  71  63 SE13      29.91R
6HR MIN TEMP:  84; 6HR MAX TEMP:  96;

CARRIZO SPRGS  CLEAR     82  73  74 SE8       29.90S
*EAGLE PASS      N/A    N/A N/A N/A MISG        N/A
$$

TXZ173-191>194-202-209-217>225-228-050700-
CENTRAL AND SOUTH CENTRAL TEXAS

CITY           SKY/WX    TMP DP  RH WIND       PRES   REMARKS
GEORGETOWN     PTCLDY    81  72  74 S6        29.96S
6HR MIN TEMP:  81; 6HR MAX TEMP:  90;

AUSTIN/BERGSTM CLEAR     77  72  84 S6        29.95R
6HR MIN TEMP:  77; 6HR MAX TEMP:  91;

AUSTIN/MABRY   CLEAR     80  73  79 S6        29.96S
6HR MIN TEMP:  80; 6HR MAX TEMP:  91;

*AUSTIN/EXEC   CLOUDY    77  73  88 CALM      29.96S
*LAGO VISTA    CLEAR     79  72  78 S6        29.98S
6HR MIN TEMP:  79; 6HR MAX TEMP:  90;

SAN MARCOS     CLEAR     79  73  83 S7        29.96S
6HR MIN TEMP:  79; 6HR MAX TEMP:  90;

NEW BRAUNFELS  CLEAR     79  75  87 S7        29.94S
6HR MIN TEMP:  79; 6HR MAX TEMP:  91;

RANDOLPH AFB   PTCLDY    78  75  89 S10       29.96R
6HR MIN TEMP:  78; 6HR MAX TEMP:  87;

PT SAN ANTONIO MOCLDY    80  74  82 SE12      29.95R
6HR MIN TEMP:  80; 6HR MAX TEMP:  90; 6HR PCP: TRACE;

SAN ANTONIO    MOCLDY    81  74  79 SE12      29.96S
6HR MIN TEMP:  80; 6HR MAX TEMP:  88;

STINSON FIELD  CLOUDY    81  75  82 SE10      29.94R
6HR MIN TEMP:  80; 6HR MAX TEMP:  91;

*PLEASANTON    MOCLDY    80  74  81 SE6       29.94S
*LA GRANGE     CLEAR     79  77  94 E3        29.93S
*GIDDINGS      CLEAR     77  73  87 CALM      29.99S
*GONZALES      CLEAR     79  77  94 S6        29.93F
$$

TXZ163>164-176>182-195>201-210>213-226-227-235-050700-
SOUTHEAST TEXAS

CITY           SKY/WX    TMP DP  RH WIND       PRES   REMARKS
COLLEGE STN    CLEAR     79  74  84 SE5       29.96R
6HR MIN TEMP:  79; 6HR MAX TEMP:  86;

*BRYAN         CLEAR     77  75  92 SE5       29.96F
*CALDWELL      CLEAR     77  77 100 S5        29.98S
*CROCKETT      CLEAR     77  73  88 CALM      29.99S
*BRENHAM       CLEAR     79  77  95 S3        29.95S
HUNTSVILLE     CLEAR     79  75  87 S5        29.96S
6HR MIN TEMP:  79; 6HR MAX TEMP:  86;

CONROE         CLEAR     76  73  91 CALM      29.96S
6HR MIN TEMP:  76; 6HR MAX TEMP:  85; 6HR PCP: TRACE;

HOUSTON BUSH   PTCLDY    78  75  90 S3        29.95S
6HR MIN TEMP:  77; 6HR MAX TEMP:  84;

HOUSTON HOBBY  PTCLDY    79  76  90 SE3       29.95S
6HR MIN TEMP:  79; 6HR MAX TEMP:  85;

*HOUSTON SW AP CLEAR     76  75  96 CALM      29.96S
6HR MIN TEMP:  75; 6HR MAX TEMP:  84;

PEARLAND       PTCLDY    79  75  87 CALM      29.96S
6HR MIN TEMP:  79; 6HR MAX TEMP:  86;

HOUSTON HOOKS  CLEAR     78  75  90 S3        29.95S
6HR MIN TEMP:  77; 6HR MAX TEMP:  83;

ELLINGTON FLD  NOT AVBL
SUGAR LAND     CLEAR     79  76  90 S5        29.95S
6HR MIN TEMP:  79; 6HR MAX TEMP:  85;

*HOUSTON EXEC  CLEAR     77  75  94 S6        29.96S
*CLEVELAND MUN CLEAR     74  74  98 CALM      29.97S FOG
6HR MIN TEMP:  74; 6HR MAX TEMP:  82;

*WHARTON       CLEAR     77  75  95 SE5       29.95F
*COLUMBUS      FAIR      77  76  98 SE3       29.94S
6HR MIN TEMP:  77; 6HR MAX TEMP:  84;

*EAGLE LAKE    CLEAR     77  76  98 S5        29.94S
$$

TXZ214>216-236>238-050700-
THE UPPER TEXAS COAST

CITY           SKY/WX    TMP DP  RH WIND       PRES   REMARKS
*ORANGE        CLEAR    N/A N/A N/A CALM      29.98S
PORT ARTHUR    CLEAR     77  75  93 CALM      29.96R
6HR MIN TEMP:  76; 6HR MAX TEMP:  84;

GALVESTON      CLEAR     84  77  79 S10       29.96S HX  94
6HR MIN TEMP:  84; 6HR MAX TEMP:  85;

ANGLETON       CLEAR     77  76  96 CALM      29.95S
6HR MIN TEMP:  77; 6HR MAX TEMP:  85;

*BAY CITY      PTCLDY    79  79  99 CALM      29.95R
PALACIOS       PTCLDY    83  78  85 S8        29.94S HX  93
6HR MIN TEMP:  81; 6HR MAX TEMP:  86;

$$

TXZ229>234-239>247-050700-
TEXAS COASTAL BEND AND RIO GRANDE PLAINS

CITY           SKY/WX    TMP DP  RH WIND       PRES   REMARKS
VICTORIA       CLEAR     78  78 100 SE5       29.94S
6HR MIN TEMP:  78; 6HR MAX TEMP:  86;

*BEEVILLE      CLEAR     78  78 100 SE3       29.94R
6HR MIN TEMP:  78; 6HR MAX TEMP:  86;

ROCKPORT       PTCLDY    84  78  82 S9        29.93R HX  95
6HR MIN TEMP:  84; 6HR MAX TEMP:  86;

*PORT ARANSAS  PTCLDY    83  79  86 SE13      29.93R HX  94
6HR MIN TEMP:  83; 6HR MAX TEMP:  85;

*PORT LAVACA   NOT AVBL
*INGLESIDE     CLEAR     84  78  83 SE10      29.92S HX  94
CORPUS CHRISTI PTCLDY    81  77  88 SE9       29.92S
6HR MIN TEMP:  81; 6HR MAX TEMP:  85;

CORPUS NAS     PTCLDY    83  78  85 SE14G20   29.93R HX  93
6HR MIN TEMP:  83; 6HR MAX TEMP:  84;

*ROBSTOWN      CLEAR     81  78  91 SE5       29.92S
ALICE          CLEAR     78  77  96 S6        29.92S
6HR MIN TEMP:  77; 6HR MAX TEMP:  86;

KINGSVILLE NAS CLEAR     81  81 100 S8        29.92S HX  92
6HR MIN TEMP:  81; 6HR MAX TEMP:  84;

COTULLA        CLEAR     83  75  77 SE13      29.92R HX  90
6HR MIN TEMP:  82; 6HR MAX TEMP:  93;

*FAITH RANCH   CLOUDY    84  73  70 SE13G20   29.91S HX  91
LAREDO         CLEAR     83  74  74 SE13      29.93S
6HR MIN TEMP:  83; 6HR MAX TEMP:  98;

$$

TXZ248>255-050700-
DEEP SOUTH TEXAS

CITY           SKY/WX    TMP DP  RH WIND       PRES   REMARKS
BROWNSVILLE    PTCLDY    83  80  91 SE9       29.93S HX  95
6HR MIN TEMP:  82; 6HR MAX TEMP:  87;

PORT ISABEL    CLEAR     85  81  88 SE12      29.92S HX 100
6HR MIN TEMP:  84; 6HR MAX TEMP:  89;

*SOUTH PADRE     N/A     84  81  89 SE13      29.93S HX  98
HARLINGEN      CLEAR     82  80  94 SE12      29.91S HX  94
6HR MIN TEMP:  82; 6HR MAX TEMP:  89;

*HEBBRONVILLE  NOT AVBL
MCALLEN        MOCLDY    82  77  84 SE7       29.92S HX  90
6HR MIN TEMP:  82; 6HR MAX TEMP:  92;

*WESLACO       PTCLDY    81  76  87 SE7       29.91S
FALFURRIAS     CLEAR     80  77  91 SE5       29.92R
6HR MIN TEMP:  80; 6HR MAX TEMP:  89;

EDINBURG       CLEAR     82  76  84 SE6       29.92S HAZE


USA.gov is the U.S. government's official web portal to all federal, state and local government web resources and services.